• In Uzbekistan
  • List of Countries
  • For 7 days
  • Water Temperature
  • Satellite Maps
  • Weather Map
  • Weather Widgets
  • user-avatar
    Login

    Hourly Weather Ordino

    Today, 23 March, Thursday

    Time Temperature Precipitation Wind Pressure Humidity
    00:00 -1°C° 0.2 mm 2 mps 624 mmHg 91%
    01:00 -2°C° 0.5 mm 2 mps 624 mmHg 92%
    02:00 -2°C° 0.5 mm 2 mps 624 mmHg 93%
    03:00 -2°C° 0.5 mm 2 mps 624 mmHg 94%
    04:00 -2°C° 0.6 mm 2 mps 624 mmHg 94%
    05:00 -2°C° 0.6 mm 2 mps 624 mmHg 94%
    06:00 -2°C° 0.6 mm 2 mps 624 mmHg 94%
    07:00 -2°C° 0.1 mm 2 mps 625 mmHg 88%
    08:00 -1°C° 0.1 mm 2 mps 625 mmHg 82%
    09:00 -1°C° 0.1 mm 3 mps 626 mmHg 77%
    10:00 0°C° 0 mm 3 mps 626 mmHg 69%
    11:00 +1°C° 0 mm 3 mps 626 mmHg 62%
    12:00 +2°C° 0 mm 3 mps 627 mmHg 55%
    13:00 +2°C° 0.1 mm 3 mps 627 mmHg 54%
    14:00 +2°C° 0.1 mm 3 mps 627 mmHg 53%
    15:00 +2°C° 0.1 mm 3 mps 627 mmHg 51%
    16:00 0°C° 0.1 mm 3 mps 626 mmHg 58%
    17:00 -2°C° 0.1 mm 2 mps 626 mmHg 64%
    18:00 -1°C° 0.1 mm 1 mps 625 mmHg 70%
    19:00 -2°C° 0.1 mm 1 mps 626 mmHg 69%
    20:00 -3°C° 0.1 mm 1 mps 626 mmHg 68%
    21:00 -4°C° 0.1 mm 1 mps 626 mmHg 68%
    22:00 -4°C° 0 mm 1 mps 626 mmHg 65%
    23:00 -6°C° 0 mm 1 mps 627 mmHg 62%

    Tomorrow, 24 March, Friday

    Time Temperature Precipitation Wind Pressure Humidity
    00:00 -6°C° 0 mm 1 mps 627 mmHg 59%
    01:00 -4°C° 0 mm 1 mps 627 mmHg 57%
    02:00 -4°C° 0 mm 1 mps 627 mmHg 55%
    03:00 -3°C° 0 mm 1 mps 628 mmHg 53%
    04:00 -3°C° 0 mm 1 mps 628 mmHg 53%
    05:00 -2°C° 0 mm 1 mps 628 mmHg 54%
    06:00 -2°C° 0 mm 1 mps 628 mmHg 55%
    07:00 0°C° 0 mm 1 mps 629 mmHg 52%
    08:00 +2°C° 0 mm 1 mps 630 mmHg 48%
    09:00 +3°C° 0 mm 1 mps 631 mmHg 44%
    10:00 +4°C° 0.2 mm 1 mps 631 mmHg 50%
    11:00 +4°C° 0.2 mm 1 mps 630 mmHg 57%
    12:00 +4°C° 0.2 mm 1 mps 630 mmHg 63%
    13:00 +2°C° 1 mm 2 mps 630 mmHg 70%
    14:00 +1°C° 1 mm 2 mps 630 mmHg 77%
    15:00 +1°C° 1 mm 2 mps 629 mmHg 85%
    16:00 -1°C° 1.6 mm 2 mps 629 mmHg 87%
    17:00 -1°C° 1.6 mm 2 mps 628 mmHg 90%
    18:00 -1°C° 1.6 mm 2 mps 628 mmHg 93%
    19:00 -1°C° 1.2 mm 2 mps 628 mmHg 93%
    20:00 -1°C° 1.2 mm 3 mps 628 mmHg 94%
    21:00 -1°C° 1.2 mm 3 mps 628 mmHg 94%
    22:00 0°C° 1.1 mm 3 mps 628 mmHg 94%
    23:00 -1°C° 1.1 mm 4 mps 627 mmHg 94%

    Day after tomorrow, 25 March, Saturday

    Time Temperature Precipitation Wind Pressure Humidity
    00:00 -1°C° 1.1 mm 4 mps 627 mmHg 95%
    01:00 0°C° 2.3 mm 4 mps 626 mmHg 95%
    02:00 0°C° 2.3 mm 4 mps 625 mmHg 96%
    03:00 0°C° 2.3 mm 4 mps 625 mmHg 97%
    04:00 0°C° 3.3 mm 4 mps 625 mmHg 97%
    05:00 +1°C° 3.3 mm 3 mps 625 mmHg 97%
    06:00 +1°C° 3.3 mm 3 mps 625 mmHg 98%
    07:00 +1°C° 0.6 mm 3 mps 625 mmHg 97%
    08:00 +1°C° 0.6 mm 3 mps 625 mmHg 96%
    09:00 +1°C° 0.6 mm 3 mps 626 mmHg 96%
    10:00 0°C° 0.3 mm 4 mps 626 mmHg 93%
    11:00 0°C° 0.3 mm 4 mps 627 mmHg 90%
    12:00 0°C° 0.3 mm 4 mps 627 mmHg 86%
    13:00 0°C° 0.3 mm 4 mps 627 mmHg 84%
    14:00 0°C° 0.3 mm 4 mps 627 mmHg 82%
    15:00 0°C° 0.3 mm 4 mps 627 mmHg 79%
    16:00 -1°C° 0.2 mm 4 mps 627 mmHg 82%
    17:00 0°C° 0.2 mm 3 mps 627 mmHg 85%
    18:00 -1°C° 0.2 mm 3 mps 627 mmHg 88%
    19:00 -2°C° 0.2 mm 3 mps 628 mmHg 88%
    20:00 -2°C° 0.2 mm 2 mps 628 mmHg 89%
    21:00 -3°C° 0.2 mm 2 mps 628 mmHg 90%
    22:00 -3°C° 0.1 mm 2 mps 628 mmHg 90%
    23:00 -3°C° 0.1 mm 2 mps 628 mmHg 90%

    26 March, Sunday

    Time Temperature Precipitation Wind Pressure Humidity
    00:00 -3°C° 0.1 mm 2 mps 628 mmHg 90%
    01:00 -3°C° 0 mm 2 mps 628 mmHg 90%
    02:00 -3°C° 0 mm 2 mps 628 mmHg 90%
    03:00 -4°C° 0 mm 2 mps 627 mmHg 90%
    04:00 -4°C° 0 mm 2 mps 627 mmHg 90%
    05:00 -4°C° 0 mm 2 mps 627 mmHg 89%
    06:00 -4°C° 0 mm 2 mps 627 mmHg 89%
    07:00 -2°C° 0 mm 2 mps 628 mmHg 85%
    08:00 +1°C° 0 mm 2 mps 629 mmHg 80%
    09:00 +3°C° 0 mm 2 mps 631 mmHg 76%
    10:00 +4°C° 0 mm 2 mps 631 mmHg 73%
    11:00 +5°C° 0 mm 2 mps 631 mmHg 70%
    12:00 +6°C° 0 mm 2 mps 631 mmHg 68%
    13:00 +6°C° 0 mm 2 mps 631 mmHg 67%
    14:00 +6°C° 0 mm 2 mps 631 mmHg 67%
    15:00 +6°C° 0 mm 2 mps 631 mmHg 66%
    16:00 +4°C° 0 mm 2 mps 630 mmHg 73%
    17:00 +3°C° 0 mm 1 mps 629 mmHg 80%
    18:00 +1°C° 0 mm 1 mps 629 mmHg 86%
    19:00 0°C° 0 mm 1 mps 629 mmHg 84%
    20:00 -1°C° 0 mm 1 mps 629 mmHg 83%
    21:00 -2°C° 0 mm 1 mps 629 mmHg 81%
    22:00 -2°C° 0 mm 1 mps 629 mmHg 80%
    23:00 -3°C° 0 mm 1 mps 628 mmHg 78%

    27 March, Monday

    Time Temperature Precipitation Wind Pressure Humidity
    00:00 -3°C° 0 mm 1 mps 628 mmHg 77%
    01:00 -3°C° 0 mm 1 mps 628 mmHg 74%
    02:00 -3°C° 0 mm 1 mps 628 mmHg 72%
    03:00 -3°C° 0 mm 1 mps 627 mmHg 70%
    04:00 -3°C° 0 mm 1 mps 627 mmHg 68%
    05:00 -3°C° 0 mm 1 mps 627 mmHg 66%
    06:00 -3°C° 0 mm 1 mps 627 mmHg 63%
    07:00 0°C° 0 mm 1 mps 629 mmHg 62%
    08:00 +4°C° 0 mm 1 mps 630 mmHg 61%
    09:00 +7°C° 0 mm 1 mps 632 mmHg 60%
    10:00 +8°C° 0 mm 1 mps 632 mmHg 60%
    11:00 +8°C° 0 mm 2 mps 632 mmHg 59%
    12:00 +9°C° 0 mm 2 mps 633 mmHg 59%
    13:00 +9°C° 0 mm 2 mps 633 mmHg 61%
    14:00 +9°C° 0 mm 2 mps 633 mmHg 63%
    15:00 +9°C° 0 mm 3 mps 633 mmHg 65%
    16:00 +7°C° 0.2 mm 2 mps 632 mmHg 73%
    17:00 +5°C° 0.2 mm 2 mps 632 mmHg 81%
    18:00 +5°C° 0.2 mm 1 mps 632 mmHg 89%
    19:00 +4°C° 0.4 mm 1 mps 632 mmHg 90%
    20:00 +3°C° 0.4 mm 1 mps 632 mmHg 92%
    21:00 +2°C° 0.4 mm 1 mps 632 mmHg 94%
    22:00 +2°C° 0.3 mm 1 mps 632 mmHg 94%
    23:00 +2°C° 0.3 mm 1 mps 632 mmHg 94%

    28 March, Tuesday

    Time Temperature Precipitation Wind Pressure Humidity
    00:00 +1°C° 0.3 mm 1 mps 632 mmHg 94%
    01:00 +1°C° 0.3 mm 1 mps 632 mmHg 94%
    02:00 +1°C° 0.3 mm 1 mps 632 mmHg 94%
    03:00 +1°C° 0.3 mm 1 mps 632 mmHg 94%
    04:00 +1°C° 0.3 mm 1 mps 632 mmHg 94%
    05:00 +1°C° 0.3 mm 1 mps 633 mmHg 94%
    06:00 +1°C° 0.3 mm 1 mps 633 mmHg 95%
    07:00 +3°C° 0.3 mm 1 mps 634 mmHg 90%
    08:00 +4°C° 0.3 mm 1 mps 635 mmHg 84%
    09:00 +6°C° 0.3 mm 1 mps 636 mmHg 79%
    10:00 +7°C° 0.3 mm 1 mps 636 mmHg 78%
    11:00 +7°C° 0.3 mm 1 mps 637 mmHg 77%
    12:00 +8°C° 0.3 mm 1 mps 637 mmHg 75%
    13:00 +8°C° 0.8 mm 1 mps 637 mmHg 77%
    14:00 +7°C° 0.8 mm 1 mps 636 mmHg 79%
    15:00 +7°C° 0.8 mm 1 mps 636 mmHg 81%
    16:00 +6°C° 0.6 mm 1 mps 636 mmHg 85%
    17:00 +5°C° 0.6 mm 1 mps 636 mmHg 90%
    18:00 +3°C° 0.6 mm 0 mps 636 mmHg 95%
    19:00 +3°C° 0.2 mm 1 mps 636 mmHg 95%
    20:00 +2°C° 0.2 mm 1 mps 636 mmHg 96%
    21:00 +1°C° 0.2 mm 1 mps 636 mmHg 96%
    22:00 0°C° 0 mm 1 mps 635 mmHg 96%
    23:00 -1°C° 0 mm 0 mps 635 mmHg 96%
    Show more